Flag for U.S.A. Weather past 2 weeks in Little Rock, Arkansas, U.S.A.

Now
39 °F

Overcast.


Feels Like: 33 °F
Forecast: 36 / 40 °F
Wind: 8 mph from North

Location: Adams Field

Current Time: Mar 2, 2015 at 2:29:18 AM

Latest Report: Mar 2, 2015 at 1:53 AM


Visibility: 10 mi

Pressure: 30.44 "Hg

Humidity: 82%

Dew point: 34 °F

Location of Little RockLocation

Historic Weather in Little Rock — Graph

°F

Little Rock temperature yesterday

Maximum temperature yesterday: 42 °F (at 7:53 PM)
Minimum temperature yesterday: 32 °F (at 12:53 AM)
Average temperature yesterday: 37 °F

Past Weeks' High & Low Weather Summary

 TemperatureHumidityPressure
High59 °F (Feb 21, 7:53 AM)93% (Feb 21, 10:59 AM)30.68 "Hg (Feb 21, 10:59 AM)
Low19 °F (Feb 19, 3:53 AM)24% (Feb 18, 2:53 PM)29.77 "Hg (Feb 21, 4:01 AM)
Average31 °F66%30.28 "Hg
* Reported Feb 15 12:53 AM — Mar 2 12:53 AM, Little Rock, Weather by CustomWeather, © 2015

Note: Actual official high and low records may vary slightly from our data, if they occured in-between our weather recording intervals... More about our weather records

Advertising

Little Rock weather history for previous 24 hours

 ConditionsComfort  
Time TempWeatherWind HumidityBarometerVisibility
12:53 AM
Mon, Mar 2
39 °FOvercast.9 mph82%30.43 "Hg10 mi
11:53 PM
Sun, Mar 1
40 °FOvercast.8 mph83%30.43 "Hg10 mi
10:53 PM40 °FLow clouds.7 mph86%30.43 "Hg10 mi
9:53 PM40 °FMostly cloudy.7 mph89%30.42 "Hg10 mi
8:53 PM41 °FLow clouds.10 mph86%30.40 "Hg10 mi
7:53 PM42 °FDrizzle. Fog.5 mph85%30.39 "Hg3 mi
6:53 PM41 °FLight rain. Fog.6 mph89%30.38 "Hg2 mi
5:53 PM41 °FLight rain. Fog.3 mph89%30.36 "Hg1 mi
4:53 PM41 °FDrizzle. Fog.3 mph89%30.36 "Hg1 mi
3:53 PM41 °FLight rain. Fog.6 mph89%30.35 "Hg3 mi
2:53 PM41 °FFog.8 mph89%30.34 "Hg6 mi
1:53 PM41 °FFog.3 mph93%30.35 "Hg1 mi
12:53 PM39 °FLight rain. Fog.3 mph93%30.37 "Hg1 mi
11:53 AM38 °FLight rain. Fog.No wind86%30.39 "Hg2 mi
11:02 AM37 °FLight rain. Fog.No wind87%30.39 "Hg1 mi
10:53 AM36 °FLight rain. Fog.No wind89%30.40 "Hg1 mi
9:53 AM35 °FLight rain. Fog.5 mph85%30.39 "Hg2 mi
8:55 AM34 °FLight rain. Fog.3 mph87%30.39 "Hg2 mi
7:53 AM34 °FFog.5 mph85%30.39 "Hg5 mi
6:53 AM34 °FLight rain. Fog.6 mph82%30.38 "Hg3 mi
5:53 AM34 °FFog.5 mph82%30.41 "Hg5 mi
4:53 AM33 °FDrizzle. Fog.7 mph82%30.39 "Hg4 mi
3:53 AM33 °FDrizzle. Mostly cloudy.6 mph78%30.38 "Hg7 mi
2:53 AM33 °FDrizzle. Mostly cloudy.7 mph75%30.36 "Hg7 mi
Weather by CustomWeather, © 2015

See weather overviewHow to use our weather pages